| time (UTC) | temp C | wind direction | speed KPH | gust KPH | rain 1hr cm | rain 24hr cm | rain mn cm | humidity % | barometer mb |
| 20260903211341 | 37 | 98 | 8.0 | 17.7 | 0.00 | 0.00 | 0.00 | 30 | 1007.9 |
| 20260903210328 | 37 | 169 | 4.8 | 12.9 | 0.00 | 0.00 | 0.00 | 31 | 1008.1 |
| 20260903205354 | 37 | 136 | 3.2 | 16.1 | 0.00 | 0.00 | 0.00 | 30 | 1008.2 |
| 20260903204403 | 37 | 190 | 6.4 | 19.3 | 0.00 | 0.00 | 0.00 | 30 | 1008.4 |
| 20260903203349 | 37 | 202 | 3.2 | 12.9 | 0.00 | 0.00 | 0.00 | 30 | 1008.6 |
| 20260903202335 | 37 | 234 | 9.7 | 24.1 | 0.00 | 0.00 | 0.00 | 29 | 1008.7 |
| 20260903201343 | 37 | 84 | 6.4 | 17.7 | 0.00 | 0.00 | 0.00 | 31 | 1008.9 |
| 20260903200355 | 37 | 145 | 9.7 | 19.3 | 0.00 | 0.00 | 0.00 | 31 | 1008.9 |
| 20260903195402 | 37 | 32 | 1.6 | 22.5 | 0.00 | 0.00 | 0.00 | 30 | 1009.0 |
| 20260903194328 | 37 | 153 | 8.0 | 16.1 | 0.00 | 0.00 | 0.00 | 31 | 1009.2 |
| 20260903193336 | 36 | 227 | 4.8 | 22.5 | 0.00 | 0.00 | 0.00 | 30 | 1009.4 |
| 20260903192343 | 36 | 227 | 3.2 | 16.1 | 0.00 | 0.00 | 0.00 | 33 | 1009.5 |
| 20260903191335 | 37 | 163 | 11.3 | 19.3 | 0.00 | 0.00 | 0.00 | 31 | 1009.7 |
| 20260903190340 | 37 | 192 | 8.0 | 16.1 | 0.00 | 0.00 | 0.00 | 31 | 1009.9 |
| 20260903185327 | 36 | 227 | 1.6 | 14.5 | 0.00 | 0.00 | 0.00 | 30 | 1010.1 |
| 20260903184333 | 36 | 231 | 9.7 | 14.5 | 0.00 | 0.00 | 0.00 | 31 | 1010.2 |
| 20260903183343 | 36 | 111 | 8.0 | 16.1 | 0.00 | 0.00 | 0.00 | 33 | 1010.3 |
| 20260903182352 | 36 | 49 | 3.2 | 20.9 | 0.00 | 0.00 | 0.00 | 34 | 1010.5 |
| 20260903181339 | 36 | 246 | 3.2 | 9.7 | 0.00 | 0.00 | 0.00 | 33 | 1010.7 |
| 20260903180345 | 35 | 194 | 1.6 | 14.5 | 0.00 | 0.00 | 0.00 | 36 | 1010.9 |
| 20260903175336 | 35 | 142 | 9.7 | 16.1 | 0.00 | 0.00 | 0.00 | 35 | 1011.1 |
| 20260903174403 | 35 | 245 | 8.0 | 17.7 | 0.00 | 0.00 | 0.00 | 37 | 1011.1 |
| 20260903173329 | 34 | 80 | 6.4 | 17.7 | 0.00 | 0.00 | 0.00 | 41 | 1011.2 |
| 20260903172336 | 34 | 162 | 11.3 | 17.7 | 0.00 | 0.00 | 0.00 | 40 | 1011.3 |
| 20260903171326 | 34 | 124 | 6.4 | 20.9 | 0.00 | 0.00 | 0.00 | 40 | 1011.2 |
| 20260903170353 | 34 | 140 | 11.3 | 16.1 | 0.00 | 0.00 | 0.00 | 41 | 1011.2 |
| 20260903165340 | 33 | 161 | 4.8 | 14.5 | 0.00 | 0.00 | 0.00 | 43 | 1011.3 |
| 20260903164406 | 33 | 152 | 6.4 | 14.5 | 0.00 | 0.00 | 0.00 | 43 | 1011.4 |
| 20260903163333 | 33 | 148 | 6.4 | 11.3 | 0.00 | 0.00 | 0.00 | 44 | 1011.3 |
| 20260903162344 | 33 | 92 | 4.8 | 16.1 | 0.00 | 0.00 | 0.00 | 44 | 1011.4 |
| 20260903161351 | 33 | 173 | 6.4 | 11.3 | 0.00 | 0.00 | 0.00 | 45 | 1011.5 |
| 20260903160358 | 32 | 123 | 4.8 | 11.3 | 0.00 | 0.00 | 0.00 | 46 | 1011.4 |
| 20260903155345 | 32 | 117 | 4.8 | 12.9 | 0.00 | 0.00 | 0.00 | 46 | 1011.5 |
| 20260903154335 | 32 | 120 | 3.2 | 12.9 | 0.00 | 0.00 | 0.00 | 47 | 1011.6 |
| 20260903153344 | 32 | 64 | 6.4 | 11.3 | 0.00 | 0.00 | 0.00 | 47 | 1011.5 |
| 20260903152351 | 32 | 52 | 1.6 | 9.7 | 0.00 | 0.00 | 0.00 | 47 | 1011.6 |
| 20260903151337 | 32 | 109 | 4.8 | 9.7 | 0.00 | 0.00 | 0.00 | 48 | 1011.6 |
| 20260903150329 | 31 | 333 | 1.6 | 3.2 | 0.00 | 0.00 | 0.00 | 49 | 1011.6 |
| 20260903145336 | 31 | 161 | 0.0 | 3.2 | 0.00 | 0.00 | 0.00 | 50 | 1011.7 |
| 20260903144343 | 31 | 232 | 0.0 | 4.8 | 0.00 | 0.00 | 0.00 | 52 | 1011.7 |
| 20260903143352 | 30 | 211 | 0.0 | 3.2 | 0.00 | 0.00 | 0.00 | 54 | 1011.6 |
| 20260903142338 | 30 | 304 | 1.6 | 4.8 | 0.00 | 0.00 | 0.00 | 55 | 1011.6 |
| 20260903141329 | 29 | 262 | 0.0 | 4.8 | 0.00 | 0.00 | 0.00 | 56 | 1011.5 |
| 20260903140336 | 29 | 279 | 1.6 | 4.8 | 0.00 | 0.00 | 0.00 | 57 | 1011.3 |
| 20260903135343 | 29 | 333 | 0.0 | 3.2 | 0.00 | 0.00 | 0.00 | 57 | 1011.2 |
| 20260903134334 | 29 | 340 | 3.2 | 6.4 | 0.00 | 0.00 | 0.00 | 56 | 1011.0 |
| 20260903133341 | 29 | 313 | 1.6 | 4.8 | 0.00 | 0.00 | 0.00 | 56 | 1010.9 |
| 20260903132326 | 29 | 302 | 0.0 | 6.4 | 0.00 | 0.00 | 0.00 | 55 | 1010.7 |
| 20260903131334 | 29 | 261 | 4.8 | 9.7 | 0.00 | 0.00 | 0.00 | 54 | 1010.6 |
| 20260903130345 | 29 | 288 | 0.0 | 11.3 | 0.00 | 0.00 | 0.00 | 54 | 1010.5 |
| 20260903125332 | 29 | 259 | 3.2 | 11.3 | 0.00 | 0.00 | 0.00 | 54 | 1010.5 |
| 20260903124340 | 30 | 298 | 4.8 | 14.5 | 0.00 | 0.00 | 0.00 | 54 | 1010.4 |
| 20260903123347 | 30 | 261 | 4.8 | 11.3 | 0.00 | 0.00 | 0.00 | 54 | 1010.3 |
| 20260903122339 | 30 | 240 | 6.4 | 12.9 | 0.00 | 0.00 | 0.00 | 53 | 1010.2 |
| 20260903121326 | 30 | 267 | 4.8 | 11.3 | 0.00 | 0.00 | 0.00 | 53 | 1010.2 |
| 20260903120333 | 30 | 257 | 1.6 | 9.7 | 0.00 | 0.00 | 0.00 | 52 | 1010.1 |
| 20260903115340 | 30 | 223 | 9.7 | 16.1 | 0.00 | 0.00 | 0.00 | 52 | 1010.0 |
| 20260903114330 | 30 | 267 | 0.0 | 8.0 | 0.00 | 0.00 | 0.00 | 51 | 1010.0 |
| 20260903113337 | 30 | 222 | 1.6 | 11.3 | 0.00 | 0.00 | 0.00 | 50 | 1010.0 |
| 20260903112343 | 30 | 217 | 3.2 | 8.0 | 0.00 | 0.00 | 0.00 | 49 | 1009.8 |
| 20260903111331 | 30 | 301 | 6.4 | 9.7 | 0.00 | 0.00 | 0.00 | 49 | 1009.8 |
| 20260903110401 | 31 | 256 | 4.8 | 11.3 | 0.00 | 0.00 | 0.00 | 48 | 1009.7 |
| 20260903105327 | 31 | 269 | 6.4 | 14.5 | 0.00 | 0.00 | 0.00 | 47 | 1009.8 |
| 20260903104355 | 31 | 257 | 4.8 | 17.7 | 0.00 | 0.00 | 0.00 | 47 | 1009.8 |
| 20260903103402 | 31 | 257 | 3.2 | 11.3 | 0.00 | 0.00 | 0.00 | 46 | 1009.9 |
| 20260903102328 | 31 | 292 | 4.8 | 17.7 | 0.00 | 0.00 | 0.00 | 46 | 1009.9 |
| 20260903101339 | 31 | 271 | 6.4 | 17.7 | 0.00 | 0.00 | 0.00 | 46 | 1009.9 |
| 20260903100327 | 31 | 302 | 4.8 | 12.9 | 0.00 | 0.00 | 0.00 | 42 | 1009.9 |
| 20260903095334 | 31 | 34 | 0.0 | 3.2 | 0.00 | 0.00 | 0.00 | 35 | 1010.0 |
| 20260903094340 | 31 | 337 | 0.0 | 1.6 | 0.00 | 0.00 | 0.00 | 34 | 1009.9 |
| 20260903093331 | 31 | 279 | 0.0 | 6.4 | 0.00 | 0.00 | 0.00 | 33 | 1009.8 |
| 20260903092337 | 31 | 281 | 0.0 | 4.8 | 0.00 | 0.00 | 0.00 | 32 | 1009.8 |
| 20260903091346 | 31 | 259 | 1.6 | 8.0 | 0.00 | 0.00 | 0.00 | 31 | 1009.7 |
| 20260903090331 | 31 | 277 | 3.2 | 11.3 | 0.00 | 0.00 | 0.00 | 30 | 1009.7 |
| 20260903085342 | 31 | 261 | 3.2 | 6.4 | 0.00 | 0.00 | 0.00 | 29 | 1009.7 |
| 20260903084330 | 31 | 304 | 1.6 | 9.7 | 0.00 | 0.00 | 0.00 | 27 | 1009.7 |
| 20260903083336 | 31 | 341 | 0.0 | 4.8 | 0.00 | 0.00 | 0.00 | 27 | 1009.8 |
| 20260903082343 | 32 | 326 | 0.0 | 1.6 | 0.00 | 0.00 | 0.00 | 28 | 1009.8 |
| 20260903081335 | 32 | 268 | 0.0 | 3.2 | 0.00 | 0.00 | 0.00 | 26 | 1009.8 |
| 20260903080341 | 32 | 313 | 0.0 | 4.8 | 0.00 | 0.00 | 0.00 | 26 | 1009.7 |
| 20260903075328 | 32 | 258 | 0.0 | 3.2 | 0.00 | 0.00 | 0.00 | 25 | 1009.7 |
| 20260903074334 | 32 | 240 | 0.0 | 3.2 | 0.00 | 0.00 | 0.00 | 25 | 1009.6 |
| 20260903073326 | 32 | 260 | 0.0 | 3.2 | 0.00 | 0.00 | 0.00 | 26 | 1009.6 |
| 20260903072353 | 32 | 213 | 0.0 | 3.2 | 0.00 | 0.00 | 0.00 | 26 | 1009.6 |
| 20260903071337 | 32 | 189 | 0.0 | 0.0 | 0.00 | 0.00 | 0.00 | 28 | 1009.7 |
| 20260903070344 | 32 | 189 | 0.0 | 0.0 | 0.00 | 0.00 | 0.00 | 28 | 1009.6 |
| 20260903065335 | 32 | 189 | 0.0 | 1.6 | 0.00 | 0.00 | 0.00 | 27 | 1009.5 |
| 20260903064341 | 33 | 215 | 0.0 | 3.2 | 0.00 | 0.00 | 0.00 | 27 | 1009.4 |
| 20260903063348 | 33 | 231 | 1.6 | 3.2 | 0.00 | 0.00 | 0.00 | 27 | 1009.3 |
| 20260903062334 | 33 | 221 | 1.6 | 4.8 | 0.00 | 0.00 | 0.00 | 27 | 1009.2 |
| 20260903061345 | 33 | 235 | 1.6 | 4.8 | 0.00 | 0.00 | 0.00 | 28 | 1009.3 |
| 20260903060352 | 34 | 216 | 1.6 | 6.4 | 0.00 | 0.00 | 0.00 | 28 | 1009.3 |
| 20260903055338 | 34 | 250 | 3.2 | 9.7 | 0.00 | 0.00 | 0.00 | 27 | 1009.2 |
| 20260903054405 | 34 | 227 | 3.2 | 11.3 | 0.00 | 0.00 | 0.00 | 26 | 1009.1 |
| 20260903053351 | 34 | 229 | 1.6 | 9.7 | 0.00 | 0.00 | 0.00 | 28 | 1009.2 |
| 20260903052342 | 35 | 296 | 3.2 | 14.5 | 0.00 | 0.00 | 0.00 | 29 | 1009.3 |
| 20260903051349 | 35 | 254 | 4.8 | 16.1 | 0.00 | 0.00 | 0.00 | 32 | 1009.3 |
| 20260903050355 | 35 | 259 | 6.4 | 11.3 | 0.00 | 0.00 | 0.00 | 35 | 1009.3 |
| 20260903045400 | 35 | 222 | 3.2 | 8.0 | 0.00 | 0.00 | 0.00 | 36 | 1009.3 |
| 20260903044326 | 35 | 220 | 4.8 | 11.3 | 0.00 | 0.00 | 0.00 | 35 | 1009.2 |
| 20260903043338 | 35 | 240 | 3.2 | 8.0 | 0.00 | 0.00 | 0.00 | 35 | 1009.2 |
| 20260903042326 | 35 | 269 | 3.2 | 8.0 | 0.00 | 0.00 | 0.00 | 35 | 1009.2 |
| 20260903041333 | 35 | 260 | 1.6 | 8.0 | 0.00 | 0.00 | 0.00 | 34 | 1009.2 |
| 20260903040325 | 35 | 254 | 4.8 | 11.3 | 0.00 | 0.00 | 0.00 | 33 | 1009.1 |
| 20260903035331 | 36 | 249 | 1.6 | 6.4 | 0.00 | 0.00 | 0.00 | 33 | 1008.9 |
| 20260903034337 | 36 | 246 | 3.2 | 12.9 | 0.00 | 0.00 | 0.00 | 32 | 1008.9 |
| 20260903033344 | 36 | 270 | 4.8 | 14.5 | 0.00 | 0.00 | 0.00 | 32 | 1008.9 |
| 20260903032350 | 36 | 231 | 8.0 | 12.9 | 0.00 | 0.00 | 0.00 | 31 | 1008.8 |
| 20260903031338 | 36 | 227 | 3.2 | 9.7 | 0.00 | 0.00 | 0.00 | 29 | 1008.7 |
| 20260903030346 | 36 | 244 | 6.4 | 16.1 | 0.00 | 0.00 | 0.00 | 29 | 1008.6 |
| 20260903025332 | 36 | 273 | 8.0 | 17.7 | 0.00 | 0.00 | 0.00 | 29 | 1008.5 |
| 20260903024338 | 36 | 273 | 4.8 | 14.5 | 0.00 | 0.00 | 0.00 | 30 | 1008.5 |
| 20260903023330 | 36 | 207 | 6.4 | 17.7 | 0.00 | 0.00 | 0.00 | 30 | 1008.3 |
| 20260903022337 | 36 | 267 | 6.4 | 11.3 | 0.00 | 0.00 | 0.00 | 29 | 1008.2 |
| 20260903021343 | 36 | 279 | 3.2 | 9.7 | 0.00 | 0.00 | 0.00 | 29 | 1008.2 |
| 20260903020335 | 37 | 250 | 6.4 | 14.5 | 0.00 | 0.00 | 0.00 | 28 | 1008.1 |
| 20260903015342 | 37 | 271 | 4.8 | 9.7 | 0.00 | 0.00 | 0.00 | 28 | 1008.0 |
| 20260903014330 | 37 | 268 | 3.2 | 9.7 | 0.00 | 0.00 | 0.00 | 28 | 1008.0 |
| 20260903013336 | 37 | 292 | 1.6 | 9.7 | 0.00 | 0.00 | 0.00 | 28 | 1007.9 |
| 20260903012403 | 37 | 274 | 6.4 | 16.1 | 0.00 | 0.00 | 0.00 | 28 | 1007.9 |
| 20260903011354 | 37 | 244 | 4.8 | 17.7 | 0.00 | 0.00 | 0.00 | 28 | 1007.9 |
| 20260903010340 | 38 | 252 | 8.0 | 17.7 | 0.00 | 0.00 | 0.00 | 28 | 1007.9 |
| 20260903005327 | 38 | 263 | 4.8 | 16.1 | 0.00 | 0.00 | 0.00 | 27 | 1007.9 |
| 20260903004354 | 38 | 255 | 3.2 | 12.9 | 0.00 | 0.00 | 0.00 | 28 | 1007.8 |
| 20260903003343 | 38 | 273 | 4.8 | 19.3 | 0.00 | 0.00 | 0.00 | 28 | 1007.9 |
| 20260903002330 | 38 | 293 | 3.2 | 16.1 | 0.00 | 0.00 | 0.00 | 27 | 1007.8 |
| 20260903001339 | 38 | 236 | 4.8 | 19.3 | 0.00 | 0.00 | 0.00 | 28 | 1007.9 |
| 20260903000406 | 38 | 273 | 8.0 | 19.3 | 0.00 | 0.00 | 0.00 | 27 | 1008.0 |
| 20260902235335 | 38 | 265 | 6.4 | 20.9 | 0.00 | 0.00 | 0.00 | 27 | 1008.1 |
| 20260902234403 | 39 | 297 | 4.8 | 12.9 | 0.00 | 0.00 | 0.00 | 27 | 1008.2 |
| 20260902233348 | 38 | 294 | 6.4 | 20.9 | 0.00 | 0.00 | 0.00 | 27 | 1008.3 |
| 20260902232335 | 39 | 253 | 11.3 | 16.1 | 0.00 | 0.00 | 0.00 | 27 | 1008.4 |
| 20260902231342 | 38 | 44 | 1.6 | 19.3 | 0.00 | 0.00 | 0.00 | 27 | 1008.4 |
| 20260902230334 | 38 | 182 | 6.4 | 20.9 | 0.00 | 0.00 | 0.00 | 27 | 1008.6 |
| 20260902225341 | 39 | 121 | 9.7 | 24.1 | 0.00 | 0.00 | 0.00 | 26 | 1008.7 |
| 20260902224327 | 40 | 259 | 9.7 | 22.5 | 0.00 | 0.00 | 0.00 | 26 | 1008.9 |
| 20260902223338 | 39 | 162 | 3.2 | 16.1 | 0.00 | 0.00 | 0.00 | 26 | 1008.9 |
| 20260902222326 | 39 | 229 | 9.7 | 22.5 | 0.00 | 0.00 | 0.00 | 26 | 1009.1 |
| 20260902221333 | 39 | 303 | 8.0 | 19.3 | 0.00 | 0.00 | 0.00 | 26 | 1009.2 |
| 20260902220359 | 39 | 263 | 4.8 | 16.1 | 0.00 | 0.00 | 0.00 | 25 | 1009.3 |
| 20260902215330 | 39 | 215 | 6.4 | 17.7 | 0.00 | 0.00 | 0.00 | 25 | 1009.5 |
| 20260902214337 | 39 | 212 | 6.4 | 19.3 | 0.00 | 0.00 | 0.00 | 25 | 1009.6 |
| 20260902213344 | 39 | 268 | 9.7 | 22.5 | 0.00 | 0.00 | 0.00 | 25 | 1009.6 |
| 20260902212330 | 39 | 205 | 6.4 | 19.3 | 0.00 | 0.00 | 0.00 | 26 | 1009.8 |